Regional Weather Roundup
Issued by NWS

Home | Current Version | Previous Version | Graphics & Text | Print | Product List | Glossary On
Versions: 1 2 3 4 5 6 7 8 9 10 11 12 13 14 15 16 17 18 19 20 21 22 23 24 25 26 27 28 29 30 31 32 33 34 35 36 37 38 39 40 41 42 43 44 45 46 47 48 49 50
000
ASUS43 KOAX 260302
RWRNE

WEATHER ROUNDUP FOR NEBRASKA
NATIONAL WEATHER SERVICE OMAHA NE
1000 PM CDT THU MAY 25 2017

NOTES: SATELLITE DATA IS BEING USED TO AUGMENT CLOUD COVER ABOVE
       12000 FEET.
       "FAIR" INDICATES FEW OR NO CLOUDS BELOW 12,000 FEET WITH NO
       SIGNIFICANT WEATHER AND/OR OBSTRUCTIONS TO VISIBILITY.

  * THESE STATIONS DO NOT REPORT WEATHER SUCH AS RAIN...SNOW OR FOG.

NEZ001>004-019>022-054>056-260400-
NEBRASKA PANHANDLE

CITY           SKY/WX    TMP DP  RH WIND       PRES   REMARKS
SCOTTSBLUFF    CLOUDY    57  52  83 CALM      29.74R
ALLIANCE       CLOUDY    53  51  93 CALM      29.71S
CHADRON        PTCLDY    59  39  47 NW10      29.73R
GORDON         CLOUDY    60  44  55 CALM      29.71R HAZE
KIMBALL        CLOUDY    52  50  92 N3        29.77R
SIDNEY         CLOUDY    54  50  86 NE7       29.73F
$$

NEZ057>060-069>072-079>082-260400-
SOUTHWEST NEBRASKA

CITY           SKY/WX    TMP DP  RH WIND       PRES   REMARKS
NORTH PLATTE   CLOUDY    59  56  89 CALM      29.65R
IMPERIAL       CLOUDY    58  54  86 N6        29.67R
LEXINGTON      CLOUDY    65  58  77 NE3       29.66R
MCCOOK         CLOUDY    64  52  64 S12       29.61S
OGALLALA       CLOUDY    61  55  81 N14G29    29.70R
$$

NEZ005>010-023>029-035>040-094-260400-
NORTH CENTRAL NEBRASKA

CITY           SKY/WX    TMP DP  RH WIND       PRES   REMARKS
VALENTINE      PTCLDY    60  47  61 CALM      29.67R
AINSWORTH      CLOUDY    59  50  72 N5        29.67R
BROKEN BOW     CLOUDY    63  56  78 CALM      29.65R
O`NEILL        PTCLDY    65  54  67 N3        29.64R
ORD            CLOUDY    62  54  74 CALM      29.61R
THEDFORD       MOCLDY    62  52  68 N3        29.69R
$$

NEZ041-046>049-061>064-073>077-083>087-260400-
SOUTH CENTRAL NEBRASKA

CITY           SKY/WX    TMP DP  RH WIND       PRES   REMARKS
GRAND ISLAND   MOCLDY    68  58  70 SE6       29.61R
AURORA         CLOUDY    67  54  62 SE5       29.61S
HASTINGS       CLOUDY    71  55  56 SE7       29.62R
HEBRON         CLOUDY    67  60  77 CALM      29.64R
HOLDREGE       CLOUDY    67  55  64 SW7       29.66R
KEARNEY *      CLOUDY    70  54  56 SW6       29.65R
YORK           CLOUDY    68  55  64 S7        29.62R
$$

NEZ011>018-030>034-042>045-260400-
NORTHEAST NEBRASKA

CITY           SKY/WX    TMP DP  RH WIND       PRES   REMARKS
NORFOLK        CLOUDY    60  52  74 SE3       29.61R
ALBION         PTCLDY    63  53  69 CALM      29.62R
BLAIR          CLOUDY    69  54  58 SE7       29.64R
FREMONT        CLOUDY    70  54  55 SE8       29.63R
TEKAMAH        CLOUDY    66  55  67 SE10      29.62R
WAYNE          CLEAR     65  53  65 SE6       29.61R
$$

NEZ050>053-065>068-078-088>093-260400-
SOUTHEAST NEBRASKA

CITY           SKY/WX    TMP DP  RH WIND       PRES   REMARKS
LINCOLN        CLOUDY    70  55  59 SE8       29.62R
OMAHA EPPLEY   CLOUDY    69  54  58 SE10      29.64R
BEATRICE       CLOUDY    71  57  60 SE7       29.62R
FALLS CITY     MOCLDY    67  55  65 E5        29.64R
NEBRASKA CITY  CLOUDY    70  49  48 SE8       29.65R
PLATTSMOUTH    CLOUDY    69  55  59 SE7       29.64R
$$

NEZ044-045-051>053-067-260400-
OMAHA AREA

CITY           SKY/WX    TMP DP  RH WIND       PRES   REMARKS
OMAHA EPPLEY   CLOUDY    69  54  58 SE10      29.64R
BLAIR          CLOUDY    69  54  58 SE7       29.64R
FREMONT        CLOUDY    70  54  55 SE8       29.63R
MILLARD        CLOUDY    70  57  63 SE6       29.63R
OFFUTT AFB     CLOUDY    66  54  65 E7        29.63R
PLATTSMOUTH    CLOUDY    69  55  59 SE7       29.64R
WAHOO          MOCLDY    67  54  62 E8        29.63R
$$



USA.gov is the U.S. government's official web portal to all federal, state and local government web resources and services.